Regional Weather Roundup
Issued by NWS Mt. Holly, NJ

Home | Current Version | Previous Version | Text Only | Print | Product List | Glossary On
Versions: 1 2 3 4 5 6 7 8 9 10 11 12 13 14 15 16 17 18 19 20 21 22 23 24 25 26 27 28 29 30 31 32 33 34 35 36 37 38 39 40 41 42 43 44 45 46 47 48 49 50
000
ASUS41 KPHI 062111
RWRPHI

REGIONAL WEATHER ROUNDUP
NATIONAL WEATHER SERVICE MOUNT HOLLY NJ
500 PM EDT WED MAY 06 2015

NOTE:  "FAIR" INDICATES FEW OR NO CLOUDS BELOW 12,000 FEET WITH NO
SIGNIFICANT WEATHER AND/OR OBSTRUCTIONS TO VISIBILITY.

 * = STATION DOES NOT REPORT PRECIPITATION (E.G. RAIN, SNOW, ETC.)
        OR FOG.

NJZ015>026-062200-
SOUTHERN NEW JERSEY

CITY           SKY/WX    TMP DP  RH WIND       PRES   REMARKS
POMONA         MOSUNNY   66  50  56 NE13      30.22F
RIO GRANDE*    SUNNY     66  48  52 NE14G20   30.20S
MILLVILLE      SUNNY     73  53  49 E9        30.19F
WRIGHTSTOWN    MOSUNNY   67  47  49 E9        30.20F
MOUNT HOLLY    PTSUNNY   69  46  43 NE7       30.22S
TRENTON        CLOUDY    66  44  45 E8        30.23F

$$
NJZ001>014-062200-
NORTHERN NEW JERSEY

CITY           SKY/WX    TMP DP  RH WIND       PRES   REMARKS
SUSSEX         CLOUDY    68  46  45 CALM      30.25F
ANDOVER*         N/A     66  48  52 N3        30.24F
MORRISTOWN     CLOUDY    68  43  40 SE5       30.24F
NEWARK         PTSUNNY   70  39  32 E6        30.23F
TETERBORO      CLOUDY    68  41  37 E6        30.23F
CALDWELL       CLOUDY    67  40  37 SE5       30.24F
SOMERVILLE     PTSUNNY   69  47  45 SE3       30.22F
ALLAIRE*       CLOUDY    61  46  59 E9        30.25S
TOMS RIVER*    PTSUNNY   64  46  52 E7        30.24F

$$
PAZ043-044-047-054-055-060>062-066>071-062200-
EASTERN PENNSYLVANIA

CITY           SKY/WX    TMP DP  RH WIND       PRES   REMARKS
PHILADELPHIA   CLOUDY    74  49  41 E9        30.20F
NORTH PHILA    CLOUDY    70  42  36 E13       30.23F
BLUE BELL      PTSUNNY   70  45  40 NE6       30.22S
DOYLESTOWN     CLOUDY    64  43  46 VRB7      30.23S
QUAKERTOWN*    CLOUDY    63  48  59 NE5       30.25S
POTTSTOWN      CLOUDY    65  46  50 NE9       30.23F
LANCASTER      PTSUNNY   67  52  58 NE14      30.20S
COATESVILLE    MOSUNNY   72  48  43 E8G16     30.22S
READING        CLOUDY    64  49  57 NE8       30.21F
ALLENTOWN      CLOUDY    66  50  56 E5        30.24F
MOUNT POCONO   CLOUDY    62  44  51 S7        30.25F
HAZLETON       CLOUDY    61  46  59 SE5       30.28S
WILKES BARRE   CLOUDY    67  49  52 N8        30.23F

$$
DEZALL-MDZ008-012-015-019-020-062200-
DELAWARE AND EASTERN MARYLAND

CITY           SKY/WX    TMP DP  RH WIND       PRES   REMARKS
WILMINGTON     PTSUNNY   74  50  42 NE9       30.20F
DOVER          SUNNY     69  57  65 E12       30.16F
GEORGETOWN     MOSUNNY   67  53  61 E13G20    30.20S
EASTON         MOSUNNY   79  59  50 SE9       30.19F
ABERDEEN       MOSUNNY   79  55  44 SE12      30.18F
PATUXENT       PTSUNNY   71  56  58 SE12      30.15F
OCEAN CITY     MOSUNNY   60  53  77 NE10      30.21R
WALLOPS ISLAND MOSUNNY   70  58  65 S14       30.17F
CAMBRIDGE      SUNNY     79  55  44 NE8       30.15F
SALISBURY      MOSUNNY   75  58  55 E12       30.17S

$$
PAZ001-021-NYZ056-072-MDZ011-DCZ001-062200-
OTHER NEARBY LOCATIONS

CITY           SKY/WX    TMP DP  RH WIND       PRES   REMARKS
HARRISBURG     CLOUDY    71  53  52 E9        30.19S
STATE COLLEGE  CLOUDY    61  57  88 NE8       30.22F HAZE
WILLIAMSPORT   CLOUDY    61  53  75 E3        30.23F
BINGHAMTON     SUNNY     66  46  48 VRB7      30.23F
NEW YORK CITY  CLOUDY    68  41  37 E6        30.27F
BALTIMORE      PTSUNNY   78  60  53 E12       30.15F
WASHINGTON DC  PTSUNNY   80  63  55 E7        30.15F

$$



USA.gov is the U.S. government's official web portal to all federal, state and local government web resources and services.